Location: Dumpton Point
(51.3500°N, 1.4433°E)
Time: 23:56:00
(UTC+00:00)

Vanguard 1 - Pass Details

Date: 26 September 2022
Orbit: 650 x 3831 km, 34.2° (Epoch: 03 December)

Event Time Altitude Azimuth Distance (km) Brightness Sun altitude
Rises 16:03:19 0° 229° (SW) 5,782 15.4 14.5°
Reaches altitude 10° 16:09:02 10° 215° (SW) 4,120 14.3 13.6°
Maximum altitude 16:15:25 19° 176° (S) 2,729 12.6 12.7°
Drops below altitude 10° 16:20:01 10° 133° (SE) 2,828 12.2 12.0°
Sets 16:22:59 0° 114° (ESE) 3,471 12.4 11.6°
